TELSTAR 19V (43562 NORAD) Tracking and Keplerian Element Data

This shows tracking and keplerian element data for the satellite.

Feedback or suggestion? Click here.




ElementValue
Catalog43562
NameTELSTAR 19V
Epoch Orbit136
Epoch Day317.03026277
Epoch Year2018
RAAN244.8894
Inclination0.0118
Eccentricity0.0002707
Argument of Perigee322.1497
Mean Anonmoly152.9741
Mean Motion1.00271803
Decay Rate-2.81E-06
L11 43562U 18059A 18317.03026277 -.00000281 00000-0 00000+0 0 9991
L22 43562 0.0118 244.8894 0002707 322.1497 152.9741 1.00271803 1366

Live tracking and technical data element details for TELSTAR 19V (NORAD 43562). TELSTAR 19V can be tracked NOW for your location showing map with azimuth and elevation plus other details from your city location.

Track the satellite on the map from your city or location and see movement details for azimuth, elevation, latitude, longitude, range, height, and movement on the map or in text.







IsCatalogInMostPopularTable: catalog: 43562, numindb: 204
Update: records affected: 1



GetName: 43562 TELSTAR 19V

Hit Count: updated at: Wed, 14 Nov 2018 16:13:15 GMT